星链-31358 (STARLINK-31358 )

导读

STARLINK-31358是美国太空探索技术公司SpaceX星链(Starlink)低轨互联网星座的卫星,于2024年2月15日发射入轨,归属于美国。星链计划旨在打造全球覆盖、大容量低时延的天基通信系统,提供高速卫星互联网服务,该卫星将参与组网,助力实现全球无缝宽带覆盖,同时星链也具备潜在军事应用价值。

基本信息
目录编号:
58977
目录名称:
STARLINK-31358
国际标识:
2024-031N
轨道中心:
EARTH
卫星名称:
星链-31358
卫星全名:
星链-31358 (STARLINK-31358 )
卫星状态:
在轨 (已飞行854 天)
发射日期:
2024-02-15 UTC
国别 :
美国 (US)
星等 :
--
轨道信息
数据来源 国际轨道数据 AOE轨道数据
星历时间 2026-06-17T16:04:27+0800
21小时前
查看轨道信息
2026-06-18T00:00:00+0800
13小时前
查看轨道信息
半长轴 6853.37km 6853.35km
偏心率 0.0001157 0.0000888
轨道倾角 53.160° 53.165°
近地点辐角 75.454° 36.417°
升交点赤经 193.542° 192.018°
平近点角 284.659° 343.872°
近地点 474.44km 474.604km
远地点 476.026km 475.822km
周期 94.106分钟 94.105分钟
每日圈数 15.301941 15.302007
详细信息
固有亮度:
5
最大亮度:
0.3
卫星平台:
Starlink v2.0 mini
覆盖范围:
全球
运营商:
太空探索技术公司
运营商所在国:
美国
制造商(研发单位):
太空探索技术公司
制造商所在国:
美国
使用方式:
暂无
卫星简介
星链(Starlink)计划是由太空探索技术公司(SpaceX)提出的一个巨型低轨卫星互联网星座项目,计划在2019年至2024年间在太空搭建由约1.2万颗卫星组成的“星链”网络,其中1584颗将部署在地球上空550千米处的近地轨道,并从2020年开始工作。该卫星仍在工作。
2D轨道图
3D轨道图
轨道高度分析图
轨道倾角分析图
轨道综合分析图
查看轨道综合分析图